Time,TemperatureF,DewpointF,PressureIn,WindDirection,WindDirectionDegrees,WindSpeedMPH,WindSpeedGustMPH,Humidity,HourlyPrecipIn,Conditions,Clouds,dailyrainin,SoftwareType,DateUTC
2013-04-07 00:03:00,29.0,16.0,30.30,WNW,284,0.0,0.0,58,0.00,,,0.00,,2013-04-07 04:03:00,
2013-04-07 00:14:00,29.0,16.0,30.30,WNW,284,0.0,0.0,58,0.00,,,0.00,,2013-04-07 04:14:00,
2013-04-07 00:23:00,29.0,13.0,30.30,WNW,284,0.0,0.0,51,0.00,,,0.00,,2013-04-07 04:23:00,
2013-04-07 00:32:00,29.0,13.0,30.30,WNW,284,0.0,0.0,51,0.00,,,0.00,,2013-04-07 04:32:00,
2013-04-07 00:43:00,29.0,13.0,30.30,WNW,284,0.0,0.0,51,0.00,,,0.00,,2013-04-07 04:43:00,
2013-04-07 00:53:00,28.0,13.0,30.30,WNW,284,0.0,0.0,53,0.00,,,0.00,,2013-04-07 04:53:00,
2013-04-07 01:02:00,28.0,12.0,30.30,WNW,284,0.0,0.0,51,0.00,,,0.00,,2013-04-07 05:02:00,
2013-04-07 01:12:00,28.0,12.0,30.30,WNW,284,0.0,0.0,51,0.00,,,0.00,,2013-04-07 05:12:00,
2013-04-07 01:23:00,28.0,16.0,30.29,WNW,284,0.0,1.0,60,0.00,,,0.00,,2013-04-07 05:23:00,
2013-04-07 01:33:00,28.0,16.0,30.30,WNW,284,0.0,1.0,60,0.00,,,0.00,,2013-04-07 05:33:00,
2013-04-07 01:43:00,28.0,16.0,30.30,WNW,284,0.0,1.0,60,0.00,,,0.00,,2013-04-07 05:43:00,
2013-04-07 01:52:00,28.0,15.0,30.29,WNW,284,0.0,0.0,57,0.00,,,0.00,,2013-04-07 05:52:00,
2013-04-07 02:02:00,28.0,15.0,30.29,WNW,284,0.0,0.0,58,0.00,,,0.00,,2013-04-07 06:02:00,
2013-04-07 02:12:00,28.0,15.0,30.29,WNW,284,0.0,0.0,58,0.00,,,0.00,,2013-04-07 06:12:00,
2013-04-07 02:22:00,28.0,17.0,30.29,WNW,284,0.0,0.0,63,0.00,,,0.00,,2013-04-07 06:22:00,
2013-04-07 02:32:00,27.0,16.0,30.29,WNW,284,0.0,0.0,63,0.00,,,0.00,,2013-04-07 06:32:00,
2013-04-07 02:42:00,27.0,16.0,30.29,WNW,284,0.0,0.0,63,0.00,,,0.00,,2013-04-07 06:42:00,
2013-04-07 02:53:00,27.0,17.0,30.29,WNW,284,0.0,0.0,66,0.00,,,0.00,,2013-04-07 06:53:00,
2013-04-07 03:02:00,27.0,17.0,30.29,WNW,284,0.0,0.0,66,0.00,,,0.00,,2013-04-07 07:02:00,
2013-04-07 03:12:00,27.0,17.0,30.29,WNW,284,0.0,0.0,66,0.00,,,0.00,,2013-04-07 07:12:00,
2013-04-07 03:22:00,27.0,19.0,30.28,WNW,284,0.0,0.0,71,0.00,,,0.00,,2013-04-07 07:22:00,
2013-04-07 03:33:00,27.0,19.0,30.27,WNW,284,0.0,0.0,71,0.00,,,0.00,,2013-04-07 07:33:00,
2013-04-07 03:42:00,27.0,19.0,30.27,WNW,284,0.0,0.0,71,0.00,,,0.00,,2013-04-07 07:42:00,
2013-04-07 03:52:00,27.0,19.0,30.27,WNW,284,0.0,0.0,72,0.00,,,0.00,,2013-04-07 07:52:00,
2013-04-07 04:02:00,27.0,19.0,30.27,WNW,284,0.0,0.0,72,0.00,,,0.00,,2013-04-07 08:02:00,
2013-04-07 04:12:00,27.0,20.0,30.25,East,80,1.0,5.0,75,0.00,,,0.00,,2013-04-07 08:12:00,
2013-04-07 04:22:00,27.0,20.0,30.25,East,80,1.0,5.0,75,0.00,,,0.00,,2013-04-07 08:22:00,
2013-04-07 04:33:00,30.0,25.0,30.25,ESE,105,2.0,4.0,81,0.00,,,0.00,,2013-04-07 08:33:00,
2013-04-07 04:42:00,30.0,25.0,30.25,ESE,105,2.0,4.0,81,0.00,,,0.00,,2013-04-07 08:42:00,
2013-04-07 04:53:00,34.0,26.0,30.25,East,94,0.0,6.0,71,0.00,,,0.00,,2013-04-07 08:53:00,
2013-04-07 05:02:00,33.0,25.0,30.25,East,94,0.0,0.0,72,0.00,,,0.00,,2013-04-07 09:02:00,
2013-04-07 05:12:00,33.0,25.0,30.25,East,94,0.0,0.0,72,0.00,,,0.00,,2013-04-07 09:12:00,
2013-04-07 05:22:00,30.0,23.0,30.26,East,94,0.0,0.0,74,0.00,,,0.00,,2013-04-07 09:22:00,
2013-04-07 05:33:00,29.0,22.0,30.26,East,94,0.0,0.0,76,0.00,,,0.00,,2013-04-07 09:33:00,
2013-04-07 05:43:00,29.0,22.0,30.26,East,94,0.0,0.0,76,0.00,,,0.00,,2013-04-07 09:43:00,
2013-04-07 05:54:00,29.0,23.0,30.26,East,94,0.0,0.0,78,0.00,,,0.00,,2013-04-07 09:54:00,
2013-04-07 06:04:00,28.0,22.0,30.26,East,94,0.0,0.0,78,0.00,,,0.00,,2013-04-07 10:04:00,
2013-04-07 06:14:00,28.0,22.0,30.26,East,94,0.0,0.0,78,0.00,,,0.00,,2013-04-07 10:14:00,
2013-04-07 06:23:00,28.0,22.0,30.27,East,94,0.0,0.0,79,0.00,,,0.00,,2013-04-07 10:23:00,
2013-04-07 06:33:00,27.0,22.0,30.27,East,94,0.0,0.0,82,0.00,,,0.00,,2013-04-07 10:33:00,
2013-04-07 06:43:00,27.0,22.0,30.27,East,94,0.0,0.0,82,0.00,,,0.00,,2013-04-07 10:43:00,
2013-04-07 06:54:00,27.0,23.0,30.27,East,94,0.0,0.0,83,0.00,,,0.00,,2013-04-07 10:54:00,
2013-04-07 07:03:00,27.0,22.0,30.28,East,94,0.0,0.0,81,0.00,,,0.00,,2013-04-07 11:03:00,
2013-04-07 07:12:00,27.0,22.0,30.28,East,94,0.0,0.0,81,0.00,,,0.00,,2013-04-07 11:12:00,
2013-04-07 07:23:00,27.0,22.0,30.29,East,94,0.0,0.0,80,0.00,,,0.00,,2013-04-07 11:23:00,
2013-04-07 07:33:00,28.0,22.0,30.29,East,94,0.0,0.0,79,0.00,,,0.00,,2013-04-07 11:33:00,
2013-04-07 07:43:00,28.0,22.0,30.29,East,94,0.0,0.0,79,0.00,,,0.00,,2013-04-07 11:43:00,
2013-04-07 07:53:00,29.0,23.0,30.29,East,94,0.0,0.0,77,0.00,,,0.00,,2013-04-07 11:53:00,
2013-04-07 08:02:00,31.0,24.0,30.30,East,94,0.0,0.0,75,0.00,,,0.00,,2013-04-07 12:02:00,
2013-04-07 08:12:00,31.0,24.0,30.30,East,94,0.0,0.0,75,0.00,,,0.00,,2013-04-07 12:12:00,
2013-04-07 08:23:00,33.0,25.0,30.30,East,94,0.0,0.0,72,0.00,,,0.00,,2013-04-07 12:23:00,
2013-04-07 08:34:00,35.0,26.0,30.30,East,94,0.0,1.0,70,0.00,,,0.00,,2013-04-07 12:34:00,
2013-04-07 08:43:00,35.0,26.0,30.30,East,94,0.0,1.0,70,0.00,,,0.00,,2013-04-07 12:43:00,
2013-04-07 08:54:00,38.0,29.0,30.29,South,188,0.0,4.0,71,0.00,,,0.00,,2013-04-07 12:54:00,
2013-04-07 09:04:00,41.0,32.0,30.28,South,186,2.0,5.0,70,0.00,,,0.00,,2013-04-07 13:04:00,
2013-04-07 09:13:00,41.0,32.0,30.28,South,186,2.0,5.0,70,0.00,,,0.00,,2013-04-07 13:13:00,
2013-04-07 09:23:00,42.0,33.0,30.28,West,263,2.0,7.0,69,0.00,,,0.00,,2013-04-07 13:23:00,
2013-04-07 09:33:00,42.0,33.0,30.27,SSE,159,2.0,10.0,70,0.00,,,0.00,,2013-04-07 13:33:00,
2013-04-07 09:42:00,42.0,33.0,30.27,SSE,159,2.0,10.0,70,0.00,,,0.00,,2013-04-07 13:42:00,
2013-04-07 09:53:00,43.0,34.0,30.27,WSW,257,3.0,11.0,70,0.00,,,0.00,,2013-04-07 13:53:00,
2013-04-07 10:02:00,44.0,35.0,30.25,West,277,3.0,14.0,70,0.00,,,0.00,,2013-04-07 14:02:00,
2013-04-07 10:12:00,44.0,35.0,30.25,West,277,3.0,14.0,70,0.00,,,0.00,,2013-04-07 14:12:00,
2013-04-07 10:23:00,44.0,36.0,30.25,South,178,4.0,12.0,73,0.00,,,0.00,,2013-04-07 14:23:00,
2013-04-07 10:33:00,44.0,35.0,30.24,SW,229,1.0,12.0,71,0.00,,,0.00,,2013-04-07 14:33:00,
2013-04-07 11:03:00,45.0,35.0,30.23,WSW,248,4.0,15.0,69,0.00,,,0.00,,2013-04-07 15:03:00,
2013-04-07 11:13:00,46.0,35.0,30.22,ENE,71,2.0,13.0,66,0.00,,,0.00,,2013-04-07 15:13:00,
2013-04-07 11:22:00,46.0,35.0,30.22,ENE,71,2.0,13.0,66,0.00,,,0.00,,2013-04-07 15:22:00,
2013-04-07 11:35:00,43.0,35.0,30.20,SSE,150,6.0,16.0,72,0.00,,,0.00,,2013-04-07 15:35:00,
2013-04-07 11:45:00,43.0,35.0,30.20,SSE,150,6.0,16.0,72,0.00,,,0.00,,2013-04-07 15:45:00,
2013-04-07 11:55:00,43.0,35.0,30.19,SSE,157,5.0,14.0,74,0.00,,,0.00,,2013-04-07 15:55:00,
2013-04-07 12:04:00,42.0,35.0,30.18,East,101,8.0,16.0,75,0.00,,,0.00,,2013-04-07 16:04:00,
2013-04-07 12:13:00,42.0,35.0,30.18,East,101,8.0,16.0,75,0.00,,,0.00,,2013-04-07 16:13:00,
2013-04-07 12:25:00,42.0,35.0,30.16,SSE,168,6.0,17.0,76,0.00,,,0.00,,2013-04-07 16:25:00,
2013-04-07 12:33:00,42.0,34.0,30.16,SE,136,6.0,17.0,74,0.00,,,0.00,,2013-04-07 16:33:00,
2013-04-07 12:43:00,42.0,34.0,30.16,SE,136,6.0,17.0,74,0.00,,,0.00,,2013-04-07 16:43:00,
2013-04-07 12:54:00,43.0,35.0,30.15,SSE,156,6.0,18.0,72,0.00,,,0.00,,2013-04-07 16:54:00,
2013-04-07 13:04:00,44.0,36.0,30.14,NNW,333,2.0,10.0,72,0.00,,,0.00,,2013-04-07 17:04:00,
2013-04-07 13:13:00,44.0,36.0,30.14,NNW,333,2.0,10.0,72,0.00,,,0.00,,2013-04-07 17:13:00,
2013-04-07 13:23:00,45.0,36.0,30.14,ESE,122,7.0,21.0,70,0.00,,,0.00,,2013-04-07 17:23:00,
2013-04-07 13:33:00,45.0,36.0,30.12,SSE,159,4.0,16.0,70,0.00,,,0.00,,2013-04-07 17:33:00,
2013-04-07 13:43:00,45.0,36.0,30.12,SSE,159,4.0,16.0,70,0.00,,,0.00,,2013-04-07 17:43:00,
2013-04-07 13:54:00,44.0,36.0,30.11,East,88,7.0,18.0,73,0.00,,,0.00,,2013-04-07 17:54:00,
2013-04-07 14:02:00,44.0,36.0,30.10,South,180,5.0,19.0,73,0.00,,,0.00,,2013-04-07 18:02:00,
2013-04-07 14:23:00,45.0,36.0,30.09,SE,138,5.0,13.0,71,0.00,,,0.00,,2013-04-07 18:23:00,
2013-04-07 14:33:00,44.0,35.0,30.08,SE,128,7.0,18.0,70,0.00,,,0.00,,2013-04-07 18:33:00,
2013-04-07 14:43:00,44.0,35.0,30.08,SE,128,7.0,18.0,70,0.00,,,0.00,,2013-04-07 18:43:00,
2013-04-07 14:53:00,45.0,35.0,30.07,SE,131,6.0,16.0,68,0.00,,,0.00,,2013-04-07 18:53:00,
2013-04-07 15:03:00,45.0,35.0,30.06,SSE,147,4.0,22.0,68,0.00,,,0.00,,2013-04-07 19:03:00,
2013-04-07 15:13:00,45.0,35.0,30.06,SSE,147,4.0,22.0,68,0.00,,,0.00,,2013-04-07 19:13:00,
2013-04-07 15:22:00,46.0,35.0,30.05,ESE,113,6.0,16.0,65,0.00,,,0.00,,2013-04-07 19:22:00,
2013-04-07 15:33:00,46.0,35.0,30.03,SE,127,6.0,18.0,66,0.00,,,0.00,,2013-04-07 19:33:00,
2013-04-07 15:42:00,46.0,35.0,30.03,SE,127,6.0,18.0,66,0.00,,,0.00,,2013-04-07 19:42:00,
2013-04-07 15:55:00,45.0,34.0,30.02,SSE,161,9.0,20.0,66,0.00,,,0.00,,2013-04-07 19:55:00,
2013-04-07 16:03:00,45.0,35.0,30.01,East,90,6.0,19.0,68,0.00,,,0.00,,2013-04-07 20:03:00,
2013-04-07 16:13:00,45.0,35.0,30.01,East,90,6.0,19.0,68,0.00,,,0.00,,2013-04-07 20:13:00,
2013-04-07 16:22:00,46.0,36.0,30.00,SE,132,7.0,17.0,67,0.00,,,0.00,,2013-04-07 20:22:00,
2013-04-07 16:33:00,47.0,37.0,30.00,SSE,150,5.0,23.0,68,0.00,,,0.00,,2013-04-07 20:33:00,
2013-04-07 16:43:00,47.0,37.0,30.00,SSE,150,5.0,23.0,68,0.00,,,0.00,,2013-04-07 20:43:00,
2013-04-07 16:55:00,46.0,37.0,29.99,South,176,6.0,23.0,70,0.00,,,0.00,,2013-04-07 20:55:00,
2013-04-07 17:03:00,45.0,37.0,29.98,SSE,149,6.0,24.0,72,0.00,,,0.00,,2013-04-07 21:03:00,
2013-04-07 17:13:00,45.0,37.0,29.98,SSE,149,6.0,24.0,72,0.00,,,0.00,,2013-04-07 21:13:00,
2013-04-07 17:23:00,45.0,38.0,29.96,SE,129,4.0,25.0,75,0.00,,,0.00,,2013-04-07 21:23:00,
2013-04-07 17:34:00,45.0,38.0,29.95,SSE,162,8.0,22.0,75,0.00,,,0.00,,2013-04-07 21:34:00,
2013-04-07 17:44:00,45.0,38.0,29.95,SSE,162,8.0,22.0,75,0.00,,,0.00,,2013-04-07 21:44:00,
2013-04-07 17:55:00,45.0,38.0,29.96,ESE,119,7.0,19.0,77,0.00,,,0.00,,2013-04-07 21:55:00,
2013-04-07 18:04:00,46.0,39.0,29.96,SW,227,7.0,18.0,76,0.00,,,0.00,,2013-04-07 22:04:00,
2013-04-07 18:14:00,46.0,39.0,29.96,SW,227,7.0,18.0,76,0.00,,,0.00,,2013-04-07 22:14:00,
2013-04-07 18:24:00,46.0,39.0,29.96,SE,133,6.0,16.0,77,0.00,,,0.00,,2013-04-07 22:24:00,
2013-04-07 18:34:00,46.0,39.0,29.97,SE,143,8.0,18.0,76,0.00,,,0.00,,2013-04-07 22:34:00,
2013-04-07 18:43:00,46.0,39.0,29.97,SE,143,8.0,18.0,76,0.00,,,0.00,,2013-04-07 22:43:00,
2013-04-07 18:54:00,45.0,39.0,29.99,SE,139,3.0,20.0,78,0.00,,,0.00,,2013-04-07 22:54:00,
2013-04-07 19:03:00,45.0,39.0,29.98,SSW,200,3.0,16.0,78,0.00,,,0.00,,2013-04-07 23:03:00,
2013-04-07 19:13:00,45.0,39.0,29.98,SSW,200,3.0,16.0,78,0.00,,,0.00,,2013-04-07 23:13:00,
2013-04-07 19:22:00,45.0,39.0,29.97,South,175,6.0,15.0,79,0.00,,,0.00,,2013-04-07 23:22:00,
2013-04-07 19:32:00,45.0,39.0,29.98,SE,134,5.0,14.0,80,0.00,,,0.00,,2013-04-07 23:32:00,
2013-04-07 19:43:00,45.0,39.0,29.98,SE,134,5.0,14.0,80,0.00,,,0.00,,2013-04-07 23:43:00,
2013-04-07 19:53:00,45.0,39.0,29.97,SSE,163,4.0,14.0,80,0.00,,,0.00,,2013-04-07 23:53:00,
2013-04-07 20:02:00,45.0,40.0,29.96,South,185,6.0,18.0,81,0.00,,,0.00,,2013-04-08 00:02:00,
2013-04-07 20:12:00,45.0,40.0,29.96,South,185,6.0,18.0,81,0.00,,,0.00,,2013-04-08 00:12:00,
2013-04-07 20:22:00,45.0,40.0,29.97,SE,133,3.0,10.0,81,0.00,,,0.00,,2013-04-08 00:22:00,
2013-04-07 20:33:00,45.0,40.0,29.96,SSW,200,4.0,13.0,81,0.00,,,0.00,,2013-04-08 00:33:00,
2013-04-07 20:42:00,45.0,40.0,29.96,SSW,200,4.0,13.0,81,0.00,,,0.00,,2013-04-08 00:42:00,
2013-04-07 20:53:00,45.0,40.0,29.97,SSW,196,7.0,19.0,81,0.00,,,0.00,,2013-04-08 00:53:00,
2013-04-07 21:03:00,45.0,39.0,29.97,South,184,5.0,15.0,80,0.00,,,0.00,,2013-04-08 01:03:00,
2013-04-07 21:12:00,45.0,39.0,29.97,South,184,5.0,15.0,80,0.00,,,0.00,,2013-04-08 01:12:00,
2013-04-07 21:23:00,45.0,40.0,29.96,SW,225,7.0,21.0,81,0.00,,,0.00,,2013-04-08 01:23:00,
2013-04-07 21:33:00,45.0,40.0,29.97,WSW,252,3.0,17.0,83,0.00,,,0.00,,2013-04-08 01:33:00,
2013-04-07 21:44:00,45.0,40.0,29.97,WSW,252,3.0,17.0,83,0.00,,,0.00,,2013-04-08 01:44:00,
2013-04-07 21:55:00,44.0,39.0,29.97,SSW,199,4.0,12.0,84,0.00,,,0.00,,2013-04-08 01:55:00,
2013-04-07 22:03:00,44.0,40.0,29.97,WSW,241,5.0,13.0,86,0.00,,,0.00,,2013-04-08 02:03:00,
2013-04-07 22:12:00,44.0,40.0,29.97,WSW,241,5.0,13.0,86,0.00,,,0.00,,2013-04-08 02:12:00,
2013-04-07 22:22:00,43.0,39.0,29.96,SW,217,3.0,11.0,87,0.00,,,0.00,,2013-04-08 02:22:00,
2013-04-07 22:33:00,43.0,39.0,29.96,SSW,205,2.0,12.0,87,0.00,,,0.00,,2013-04-08 02:33:00,
2013-04-07 22:47:00,43.0,39.0,29.96,SSW,205,2.0,12.0,87,0.00,,,0.00,,2013-04-08 02:47:00,
2013-04-07 23:08:00,43.0,40.0,29.94,SW,218,3.0,9.0,88,0.00,,,0.00,,2013-04-08 03:08:00,
2013-04-07 23:15:00,43.0,40.0,29.94,SW,218,3.0,9.0,88,0.00,,,0.00,,2013-04-08 03:15:00,
2013-04-07 23:25:00,43.0,40.0,29.95,SW,222,5.0,13.0,88,0.00,,,0.00,,2013-04-08 03:25:00,
2013-04-07 23:34:00,43.0,40.0,29.94,South,182,2.0,10.0,88,0.00,,,0.00,,2013-04-08 03:34:00,
2013-04-07 23:47:00,43.0,40.0,29.94,South,182,2.0,10.0,88,0.00,,,0.00,,2013-04-08 03:47:00,
2013-04-07 23:58:00,43.0,40.0,29.94,SSW,207,3.0,10.0,89,0.00,,,0.00,,2013-04-08 03:58:00,